Terminal Aerodrome Forecast
Issued by NWS Wilmington, OH

Current Version | Previous Version | Text Only | Print | Product List | Glossary Off
Versions: 1 2 3 4 5 6 7 8 9 10 11 12 13 14 15 16 17 18 19 20 21 22 23 24 25 26 27 28 29 30

000
FTUS41 KILN 240733 AAB
TAFDAY
TAF AMD
KDAY 240733Z 2408/2506 02005KT 5SM BR BKN008
     FM241200 03006KT 5SM BR BKN012
     FM241400 04008KT P6SM BKN025
     FM241700 04008KT P6SM SCT035 BKN250
     FM250200 07005KT P6SM SCT250=

USA.gov is the U.S. government's official web portal to all federal, state and local government web resources and services.